{"data":{"norad_id":56399,"epoch":"2026-05-24T09:11:51.445248Z","epoch_age_seconds":132318,"freshness":"FRESH","line1":"1 56399U 23061AB  26144.38323432 -.00001698  00000+0 -52219-4 0  9997","line2":"2 56399  43.0063 119.3387 0002112 306.5645  53.5012 15.27558056168451","mean_motion":15.27558056,"eccentricity":0.0002112,"inclination_deg":43.0063,"raan_deg":119.3387,"arg_perigee_deg":306.5645,"mean_anomaly_deg":53.5012,"bstar":-5.2219e-5,"rev_number":16845,"period_min":94.268102894284,"perigee_km":481.66570867534,"apogee_km":484.5639014378,"semimajor_km":6861.2518050566,"source":"CELESTRAK","updated_at":"2026-05-25T13:38:18.015377Z"}}